Location: Mountain Grove
(34.0887°N, 86.6172°W)
Time: 00:47:17
(UTC+00:00)

Hubble Space Telescope - Pass Details

Date: 14 July 2020
Orbit: 536 x 540 km, 28.5° (Epoch: 12 August)

Event Time Altitude Azimuth Distance (km) Brightness Sun altitude
Rises 01:38:34 0° 255° (WSW) 2,667 5.0 -7.9°
Reaches altitude 10° 01:40:56 10° 247° (WSW) 1,778 3.9 -8.3°
Maximum altitude 01:44:45 37° 179° (S) 830 1.5 -9.0°
Enters shadow 01:48:08 13° 114° (ESE) 1,619 2.6 -9.5°
